Location: Molveno
(46.1500°N, 10.9667°E)
Time: 17:09:24
(UTC+00:00)

Cosmos 1340 - Pass Details

Date: 05 July 2020
Orbit: 502 x 505 km, 81.2° (Epoch: 10 August)

Event Time Altitude Azimuth Distance (km) Brightness Sun altitude
Exits shadow 23:34:14 40° 265° (W) 758 3.4 -21.1°
Maximum altitude 23:34:41 42° 285° (WNW) 733 3.5 -21.1°
Drops below altitude 10° 23:38:18 10° 358° (N) 1,723 6.5 -21.1°
Sets 23:40:31 0° 5° (N) 2,613 7.9 -21.0°
